Presure
220 220 215 241 252 255 262 273 270 279 276 267 265 263 270 281 284 280 275 277 229 242 237 234 235 234 232 231 229 233 223 216 215 215 212 210 216 230 234 201 207 218 225 226
239 274 266 272 272 270 271 277 274 291 290 379 360 341 339 347 351 355 365 289 267 265 265 265 257 266 262 246 237 237 240 240 203 222 186 211 219 232 225 225 226 220 213 215
249 275 267 266 268 266 255 277 374 435 392 440 437 425 432 364 363 306 303 311 401 431 406 324 277 266 261 261 252 239 232 243 233 232 219 229 217 237 236 220 222 253 242 207
265 260 260 260 262 247 322 329 429 433 421 410 407 442 435 424 454 427 414 428 421 402 402 386 404 345 324 279 263 255 246 241 233 239 239 243 242 237 234 223 233 239 244 239
259 251 253 245 266 404 445 430 425 416 395 398 414 416 411 405 408 405 427 431 403 412 406 389 396 407 378 340 325 322 283 265 260 251 251 254 251 252 241 242 244 238 241 243
251 249 236 265 312 435 427 411 402 399 379 388 395 387 388 387 388 384 383 387 409 416 402 389 400 389 395 398 369 333 320 316 311 317 278 273 264 258 255 250 247 248 248 244
249 235 321 296 425 420 409 394 389 387 375 373 366 364 367 367 364 365 368 367 369 373 382 429 469 424 395 378 390 379 348 321 300 298 305 305 312 312 281 263 255 255 260 246
240 306 359 392 402 396 388 379 375 373 364 360 352 351 374 376 372 373 383 400 415 356 356 360 379 410 453 424 375 373 358 368 336 314 288 279 277 262 260 300 296 260 298 292
299 318 383 390 386 386 376 368 364 360 357 352 348 341 341 374 374 408 398 398 405 401 400 412 378 350 414 437 455 398 366 370 372 360 330 310 290 285 280 280 283 253 274 287
280 355 381 373 373 377 367 359 353 350 352 351 345 350 363 374 414 408 405 392 388 384 384 390 397 401 407 402 416 425 450 454 355 358 370 351 327 311 293 282 278 284 286 293
365 361 377 371 371 370 361 357 348 345 344 343 342 357 403 407 389 386 386 386 378 385 382 379 382 384 398 399 402 421 400 412 436 458 340 348 360 356 329 311 259 273 282 282
355 371 374 372 364 367 361 352 349 341 340 339 334 334 428 402 393 384 387 384 391 385 369 380 371 366 383 389 389 392 392 394 385 391 437 420 415 346 353 352 354 326 284 262
342 368 377 301 351 365 366 353 347 342 334 336 332 326 407 405 409 389 381 384 390 391 403 368 356 357 363 378 380 380 384 388 390 386 401 394 425 396 359 333 344 345 371 360
337 364 371 303 309 347 363 357 349 343 338 333 334 325 376 415 417 397 387 384 386 400 401 367 350 349 366 375 375 373 370 373 384 391 388 404 402 401 416 365 355 330 332 339
348 360 371 303 335 298 357 368 353 344 335 330 328 328 318 374 391 422 416 419 429 441 389 347 346 348 368 360 361 360 364 365 368 374 381 388 394 412 428 417 408 386 334 326
353 369 339 297 307 331 308 352 359 345 339 329 325 326 318 332 371 399 411 401 361 345 341 341 347 357 353 343 345 351 352 354 354 356 363 369 376 388 406 423 438 443 381 378
356 371 339 301 297 325 318 351 354 352 345 331 322 322 325 311 346 374 397 411 331 330 330 332 340 334 331 332 336 335 337 338 338 343 346 350 353 358 364 375 391 409 443 444
341 391 329 301 297 317 330 341 349 355 346 337 328 318 321 320 307 342 365 388 413 322 326 321 327 321 316 320 323 323 323 324 326 327 334 342 347 348 352 358 365 371 380 393
340 363 325 303 304 295 331 354 351 351 344 340 331 324 322 317 316 307 334 367 374 406 316 323 321 317 310 309 306 309 308 313 318 318 320 326 333 337 338 342 351 434 415 389
390 351 323 307 308 296 360 364 359 356 341 337 332 327 316 322 316 315 301 336 363 373 393 322 321 313 308 307 305 307 312 314 305 303 308 315 322 324 330 335 389 416 404 433
374 345 321 306 312 327 391 397 376 352 338 341 334 334 322 317 322 313 315 310 329 357 362 373 391 314 316 309 306 305 304 306 311 313 318 313 306 313 324 328 335 412 391 415
361 344 317 308 311 399 408 388 370 354 342 346 341 333 332 322 316 320 311 316 303 327 346 354 358 367 379 307 308 309 307 304 300 303 310 311 311 304 305 320 328 386 384 413
363 337 313 309 312 422 404 385 371 357 349 346 345 338 335 335 325 321 317 310 317 299 327 333 347 350 359 361 362 354 299 297 297 298 301 309 317 313 304 304 326 322 396 373
356 334 314 316 353 419 395 323 372 367 358 350 348 345 341 342 337 329 322 315 317 310 306 308 323 327 344 348 355 360 364 364 361 362 358 328 321 318 304 303 369 334 350 390
350 332 311 312 398 386 349 332 317 299 343 361 355 351 349 348 344 339 338 325 317 319 307 314 297 315 327 326 341 344 349 353 355 358 363 371 370 369 364 361 372 371 322 370
347 328 312 316 384 365 353 339 330 320 307 303 366 363 359 356 354 349 347 345 335 328 323 322 303 318 299 321 334 323 338 343 343 345 350 354 358 368 368 368 369 370 364 322
344 320 318 389 383 371 358 348 340 335 327 314 303 382 375 372 365 361 357 350 350 345 336 331 322 326 309 324 297 323 344 320 326 335 342 344 346 348 355 366 364 364 368 367
Wind_Speed
101 102 101 107 106 104 107 106 108 106 107 106 106 106 108 113 114 112 113 114 106 112 110 107 108 107 106 101 97 99 99 89 81 81 86 87 86 82 82 81 75 71 69 66
107 103 105 104 105 106 106 108 108 110 105 95 96 97 97 96 97 96 95 111 113 113 112 112 111 110 110 108 105 103 103 102 98 90 94 89 88 88 86 84 83 80 78 77
106 100 101 105 109 108 101 109 97 67 80 60 57 60 58 76 80 96 94 97 76 71 82 106 113 112 111 109 108 106 105 105 99 97 95 96 95 91 93 94 90 82 82 88
100 102 106 108 110 105 106 98 63 55 55 58 58 43 43 50 43 55 62 60 64 71 74 82 84 103 109 115 111 110 111 109 107 103 102 102 99 97 98 98 93 94 86 92
101 106 108 106 113 78 60 60 55 51 52 52 47 45 44 46 46 50 46 49 61 62 66 74 76 80 91 103 106 109 116 112 110 107 108 107 103 101 101 101 101 100 96 95
107 108 104 116 103 62 57 56 54 49 50 47 44 46 44 44 45 48 49 50 49 51 59 65 68 75 75 79 91 104 107 106 107 104 111 112 107 105 101 104 103 102 101 99
110 106 101 102 65 60 56 53 49 44 44 44 43 43 44 44 45 45 47 48 48 50 53 45 38 58 67 76 76 87 99 104 106 101 101 106 103 102 104 106 105 104 102 103
107 101 86 74 64 59 55 51 48 43 41 41 43 41 38 38 38 37 37 36 33 48 50 51 50 46 38 52 72 77 85 89 102 106 105 106 104 103 103 101 102 103 99 101
98 98 76 68 63 56 52 49 46 42 39 40 39 40 40 35 35 29 31 30 28 30 32 31 42 51 36 30 31 60 72 75 80 93 104 110 108 106 105 102 104 106 101 99
99 87 71 67 62 55 49 47 45 42 39 38 38 37 38 33 25 25 25 27 28 31 31 31 29 27 28 33 32 34 30 35 75 78 83 98 107 110 109 106 105 105 102 100
82 81 69 65 60 54 48 45 43 41 39 36 36 35 29 28 30 30 28 26 27 26 28 29 25 25 24 24 25 22 35 37 34 29 80 83 84 89 106 110 104 106 105 103
82 77 69 63 59 55 48 44 42 40 38 36 35 35 22 27 30 31 33 28 27 27 30 27 26 26 23 25 23 25 29 35 44 48 34 51 60 84 87 91 93 109 107 101
83 76 67 68 61 56 50 44 41 39 38 36 35 34 24 23 26 29 31 32 32 29 29 25 26 25 25 25 24 25 27 30 36 43 41 48 43 63 76 83 84 88 84 90
82 75 67 67 65 59 53 45 41 37 36 35 33 32 28 21 22 25 27 28 28 29 24 22 23 23 24 21 20 22 26 27 28 32 39 38 42 48 50 72 78 85 87 88
77 75 66 67 65 63 56 48 41 37 34 33 32 32 31 27 23 19 19 19 19 20 18 19 19 21 20 17 17 20 22 23 26 29 32 34 37 39 45 56 64 72 84 86
76 72 64 66 66 63 61 52 44 38 33 32 31 30 30 29 25 19 14 13 11 14 16 15 16 16 16 16 18 20 20 20 21 23 25 27 30 32 34 39 43 50 71 73
74 68 62 65 66 65 63 52 46 38 33 30 29 29 28 27 26 24 18 12 13 15 15 15 15 15 15 16 15 15 17 18 19 21 23 25 27 29 32 34 37 40 40 47
73 61 60 62 63 64 63 54 47 40 34 30 26 27 27 25 23 23 21 16 11 16 16 16 16 17 17 16 15 16 17 18 19 20 20 22 24 27 30 31 35 40 42 42
72 58 59 60 60 62 61 48 45 38 33 29 26 24 22 24 23 20 19 19 15 12 18 18 18 19 19 19 18 16 17 17 18 19 20 20 21 23 25 26 29 20 27 35
56 56 55 57 58 59 54 46 44 32 32 28 26 24 23 20 21 21 17 17 16 13 10 20 21 21 20 19 19 18 18 18 21 21 20 18 19 20 21 22 21 19 23 18
55 54 55 56 56 55 45 38 26 26 29 26 26 23 22 22 19 19 19 16 14 13 12 9 10 23 22 22 21 21 20 20 20 20 21 21 21 20 20 20 20 17 21 19
53 51 52 54 54 40 33 26 25 26 28 26 23 23 22 22 21 19 19 18 16 12 11 10 11 11 13 24 24 23 22 21 21 20 21 21 20 21 21 20 20 17 21 20
50 49 51 52 52 28 25 25 24 26 28 28 25 23 22 21 21 20 19 20 17 16 12 10 10 11 11 12 14 18 25 24 24 23 22 22 22 21 22 22 21 20 16 20
47 47 49 50 41 22 23 37 25 26 27 27 27 26 23 22 21 21 21 21 20 19 18 15 12 11 11 11 12 13 15 17 18 19 20 22 23 22 22 22 17 20 18 16
46 46 48 49 35 30 35 33 32 33 26 27 28 28 27 25 23 23 23 23 23 21 21 18 18 13 13 12 12 12 12 13 14 15 16 17 18 18 18 18 17 17 20 16
45 45 47 48 36 34 32 31 30 29 29 29 28 30 30 29 28 26 24 24 24 24 23 21 21 18 17 13 14 13 13 13 14 13 13 14 14 15 16 16 16 15 16 18
43 45 47 36 33 30 29 28 28 27 27 27 27 28 29 30 29 29 28 27 26 26 25 24 23 22 21 17 16 14 14 15 14 13 13 13 13 12 12 13 14 14 14 15
Wind_Direction
298 298 298 296 294 292 291 289 291 290 288 286 281 278 275 273 271 269 268 266 268 265 265 265 264 262 262 260 258 257 257 252 250 250 248 249 251 253 251 248 247 246 246 240
301 302 300 297 296 294 296 296 296 292 288 285 282 279 276 273 269 267 265 264 262 262 262 261 259 258 256 256 255 255 255 254 253 251 254 248 253 255 251 248 246 244 242 241
304 303 301 298 298 302 305 301 296 297 291 288 282 278 274 272 270 268 264 263 259 254 252 257 258 257 255 254 253 253 254 253 251 250 249 251 251 252 252 249 247 251 243 242
305 303 302 304 307 310 304 302 306 303 295 290 285 280 272 269 266 265 262 258 255 255 253 251 246 253 253 254 252 251 250 249 252 251 250 250 249 248 249 248 249 248 244 241
305 307 310 315 310 314 316 314 311 306 299 292 287 283 278 274 269 265 264 260 258 256 253 252 249 246 245 249 250 251 251 251 250 250 251 250 249 247 246 248 247 246 245 244
309 312 317 312 312 320 318 314 312 308 301 295 291 287 283 279 274 270 265 262 262 259 257 254 249 249 246 243 242 247 248 249 249 247 250 251 248 247 247 246 246 246 245 245
313 318 317 315 327 323 320 317 314 312 304 299 294 290 286 282 276 273 270 267 263 261 260 258 261 251 247 246 243 240 242 245 247 247 246 247 248 247 248 246 245 245 245 244
319 320 325 328 330 325 323 320 318 315 307 302 298 295 293 290 285 280 275 274 272 260 258 258 256 257 259 249 242 241 241 240 240 243 244 245 245 243 243 246 247 243 245 245
323 325 332 334 333 329 325 322 319 316 311 306 301 298 294 294 290 286 280 278 277 273 267 265 257 253 256 258 254 243 242 240 240 239 239 242 242 242 244 245 246 241 243 245
325 329 335 335 335 333 328 324 322 320 317 312 307 304 303 302 293 286 282 279 275 270 267 265 264 260 259 254 251 248 247 243 239 237 237 237 238 240 241 241 242 244 244 243
331 334 338 339 339 337 332 327 324 323 320 315 311 312 299 280 294 293 288 283 277 273 269 268 268 260 264 256 249 244 237 240 241 229 237 238 236 238 238 239 240 241 242 242
332 339 340 341 343 341 336 331 327 325 323 319 316 315 280 284 288 288 286 287 284 267 268 265 262 258 259 255 248 241 235 234 235 233 228 232 234 235 235 237 237 239 240 242
334 340 339 336 342 343 341 334 330 326 323 323 321 319 321 299 276 285 283 284 281 279 271 257 255 257 255 255 248 243 240 235 233 233 235 236 237 236 234 237 237 238 238 240
334 339 337 336 339 342 342 338 332 328 325 325 325 321 336 319 297 289 287 285 281 276 270 245 250 254 257 256 252 248 244 242 239 238 239 239 239 242 239 233 235 237 239 239
336 338 335 336 338 339 339 340 334 329 324 323 325 325 320 336 329 310 297 289 284 278 249 248 249 253 253 245 245 243 241 241 242 241 241 243 243 240 238 240 238 235 237 239
335 335 333 334 336 337 340 337 335 330 323 320 322 324 321 331 336 333 318 300 273 254 254 247 248 244 239 242 241 244 245 242 243 245 245 244 245 246 246 245 245 245 240 237
334 331 332 332 335 335 337 332 332 328 324 318 318 321 322 319 337 337 336 317 273 265 258 253 248 241 241 244 244 239 238 237 237 238 240 241 241 243 245 246 247 248 248 245
333 327 330 331 333 333 332 330 326 325 322 316 314 316 317 318 319 341 337 333 313 267 264 256 250 244 243 241 235 234 237 238 240 242 244 246 246 246 247 247 247 247 246 244
332 327 329 330 332 333 329 319 319 316 316 313 310 310 313 313 316 319 338 332 326 311 261 256 252 247 247 247 245 239 237 237 241 243 245 248 248 249 251 251 251 263 248 244
326 327 328 329 331 332 321 311 308 303 308 307 304 302 303 306 307 311 312 337 329 321 302 256 252 248 246 245 247 249 248 247 243 244 246 249 254 256 259 258 259 258 248 232
328 328 327 329 329 327 309 304 297 293 300 299 297 296 294 296 300 300 306 311 328 328 313 302 279 254 252 251 249 249 249 251 252 253 254 252 251 254 258 259 260 256 247 228
327 326 326 328 329 314 306 300 290 286 294 295 292 291 289 287 288 291 292 297 296 315 321 311 300 287 273 252 252 251 251 251 252 255 257 256 254 251 255 262 264 267 250 237
327 327 327 328 328 307 302 295 288 285 289 292 292 287 287 284 280 280 283 282 288 287 302 312 307 296 287 274 264 259 250 251 252 253 254 255 256 254 251 257 264 264 257 244
328 327 327 327 326 305 301 330 287 282 283 289 290 291 289 286 281 276 274 275 274 278 279 282 291 295 293 284 277 268 264 262 264 265 264 258 256 254 248 252 262 262 258 248
329 328 328 327 327 323 328 328 330 330 308 290 290 291 292 290 283 277 273 270 269 268 269 273 274 276 282 281 280 275 269 266 264 265 266 266 265 266 266 265 262 260 255 247
329 328 328 331 331 328 326 325 326 326 329 331 292 289 288 287 284 280 276 271 266 265 264 262 266 267 266 275 276 275 273 267 266 266 267 267 268 268 265 263 261 258 253 250
331 331 332 331 329 327 324 322 321 320 320 324 329 289 288 287 283 280 276 272 269 264 263 261 261 258 263 263 265 271 271 267 267 267 265 264 264 263 266 265 260 256 252 247